San Carlos, CA

10:24 AM PST on November 24, 2017 (GMT -0800)
San Carlos

Weather History for KSQL - January, 2013

Change the Weather History Date:

Wednesday, January 30, 2013

  Actual Average Record
Temperature  
Mean Temperature 52 °F -  
Max Temperature 64 °F 58 °F 72 °F (1976)
Min Temperature 41 °F 38 °F 25 °F (1975)
Degree Days  
Heating Degree Days 12    
Growing Degree Days 2 (Base 50)    
Moisture  
Dew Point 41 °F    
Average Humidity 76    
Maximum Humidity 93    
Minimum Humidity 40    
Precipitation  
Precipitation 0.00 in - - ()
Sea Level Pressure  
Sea Level Pressure 30.30 in    
Wind  
Wind Speed 1 mph (East)    
Max Wind Speed 7 mph    
Max Gust Speed -    
Visibility 10 miles    
Events      
Averages and records for this station are not official NWS values.
T = Trace of Precipitation, MM = Missing Value Source: NWS Daily Summary

Daily Weather History Graph

Daily Weather History Graph

Search for Another Location

Airport or City:

Trip Planner

Search our weather history database for the weather conditions in past years. The results will help you decide how hot, cold, wet, or windy it might be!

Date:

Astronomy

Jan. 30, 2013 Rise Set
Actual Time 7:13 AM PST 5:31 PM PST
Civil Twilight 6:46 AM PST 5:59 PM PST
Nautical Twilight 6:14 AM PST 6:30 PM PST
Astronomical Twilight 5:44 AM PST 7:01 PM PST
Moon 9:29 PM PST (1/30) 8:50 AM PST (1/30)
Length of Visible Light 11h 12m
Length of Day
10h 17m
Waning Gibbous, 87% of the Moon is Illuminated
Jan 30
Waning Gibbous
Feb 3
Last Quarter
Feb 9
New
Feb 17
First Quarter
Feb 25
Full

Hourly Weather History & Observations

Time (PST) Temp. Windchill Dew Point Humidity Pressure Visibility Wind Dir Wind Speed Gust Speed Precip Events Conditions
12:15 AM 46.4 °F - 41.0 °F 81% 30.32 in 10.0 mi Calm Calm - N/A   Clear
12:55 AM 44.6 °F - 41.0 °F 87% 30.31 in 10.0 mi Calm Calm - N/A   Clear
1:15 AM 44.6 °F - 41.0 °F 87% 30.31 in 10.0 mi Calm Calm - N/A   Clear
1:35 AM 44.6 °F - 41.0 °F 87% 30.31 in 10.0 mi Calm Calm - N/A   Clear
1:55 AM 44.6 °F - 41.0 °F 87% 30.31 in 10.0 mi Calm Calm - N/A   Clear
2:15 AM 44.6 °F - 39.2 °F 81% 30.31 in 10.0 mi Calm Calm - N/A   Clear
2:35 AM 44.6 °F 43.1 °F 39.2 °F 81% 30.31 in 10.0 mi West 3.5 mph - N/A   Clear
2:55 AM 44.6 °F - 41.0 °F 87% 30.30 in 10.0 mi Calm Calm - N/A   Clear
3:15 AM 44.6 °F - 39.2 °F 81% 30.30 in 10.0 mi Calm Calm - N/A   Clear
3:35 AM 42.8 °F 41.1 °F 39.2 °F 87% 30.30 in 10.0 mi SSE 3.5 mph - N/A   Clear
3:55 AM 42.8 °F 40.1 °F 39.2 °F 87% 30.30 in 10.0 mi SSE 4.6 mph - N/A   Clear
4:15 AM 42.8 °F - 39.2 °F 87% 30.30 in 10.0 mi Calm Calm - N/A   Clear
4:35 AM 42.8 °F - 39.2 °F 87% 30.30 in 10.0 mi Calm Calm - N/A   Clear
4:55 AM 41.0 °F - 39.2 °F 93% 30.29 in 10.0 mi Calm Calm - N/A   Clear
5:15 AM 42.8 °F - 39.2 °F 87% 30.29 in 10.0 mi Calm Calm - N/A   Clear
5:35 AM 42.8 °F 41.1 °F 39.2 °F 87% 30.30 in 10.0 mi SSE 3.5 mph - N/A   Clear
5:55 AM 41.0 °F 39.0 °F 39.2 °F 93% 30.30 in 10.0 mi West 3.5 mph - N/A   Clear
6:15 AM 42.8 °F - 39.2 °F 87% 30.31 in 10.0 mi Calm Calm - N/A   Clear
6:35 AM 42.8 °F - 39.2 °F 87% 30.31 in 10.0 mi Calm Calm - N/A   Clear
6:51 AM 42.8 °F - 39.2 °F 87% 30.31 in 30.0 mi Calm Calm - N/A   Partly Cloudy
6:55 AM 42.8 °F - 39.2 °F 87% 30.31 in 10.0 mi Calm Calm - N/A   Clear
7:47 AM 44.6 °F - 39.2 °F 81% 30.34 in 30.0 mi Calm Calm - N/A   Partly Cloudy
8:53 AM 48.2 °F - 42.8 °F 82% 30.34 in 30.0 mi Calm Calm - N/A   Partly Cloudy
9:49 AM 53.6 °F - 46.4 °F 77% 30.35 in 30.0 mi Calm Calm - N/A   Partly Cloudy
10:47 AM 59.0 °F - 41.0 °F 51% 30.36 in 30.0 mi East 4.6 mph - N/A   Partly Cloudy
11:53 AM 62.6 °F - 41.0 °F 45% 30.33 in 30.0 mi East 6.9 mph - N/A   Clear
12:47 PM 62.6 °F - 41.0 °F 45% 30.31 in 30.0 mi ENE 3.5 mph - N/A   Clear
1:52 PM 64.4 °F - 41.0 °F 42% 30.28 in 30.0 mi Calm Calm - N/A   Partly Cloudy
2:48 PM 64.4 °F - 39.2 °F 40% 30.28 in 30.0 mi NE 4.6 mph - N/A   Partly Cloudy
3:49 PM 60.8 °F - 42.8 °F 52% 30.28 in 30.0 mi NNE 6.9 mph - N/A   Clear
4:50 PM 59.0 °F - 48.2 °F 67% 30.27 in 30.0 mi NNE 4.6 mph - N/A   Clear
5:47 PM 59.0 °F - 41.0 °F 51% 30.27 in 30.0 mi NW 4.6 mph - N/A   Clear
6:47 PM 55.4 °F - 46.4 °F 72% 30.28 in 10.0 mi Calm Calm - N/A   Clear
7:47 PM 53.6 °F - 46.4 °F 77% 30.28 in 10.0 mi Calm Calm - N/A   Clear
8:47 PM 50.0 °F - 42.8 °F 76% 30.29 in 10.0 mi SSW 3.5 mph - N/A   Clear